Time,TemperatureF,DewpointF,PressureIn,WindDirection,WindDirectionDegrees,WindSpeedMPH,WindSpeedGustMPH,Humidity,HourlyPrecipIn,Conditions,Clouds,dailyrainin,SolarRadiationWatts/m^2,SoftwareType,DateUTC
2013-01-14 00:02:00,35.0,32.9,29.95,SW,219,3.5,3.5,92,0.00,RA,,0.00,0.0,WeatherDisplay:10.37,2013-01-14 00:02:00,
2013-01-14 00:07:00,34.9,32.8,29.95,SW,220,4.6,4.6,92,0.00,RA,,0.00,0.0,WeatherDisplay:10.37,2013-01-14 00:07:00,
2013-01-14 00:12:00,34.9,32.8,29.95,SW,219,2.0,2.0,92,0.00,CLR,,0.00,0.0,WeatherDisplay:10.37,2013-01-14 00:12:00,
2013-01-14 00:17:00,34.8,32.7,29.94,SW,219,3.5,0.0,92,0.00,CLR,,0.00,0.0,WeatherDisplay:10.37,2013-01-14 00:17:00,
2013-01-14 00:22:00,34.7,32.6,29.94,SW,219,3.5,0.0,92,0.00,CLR,,0.00,0.0,WeatherDisplay:10.37,2013-01-14 00:22:00,
2013-01-14 00:27:00,34.5,32.4,29.94,SW,221,0.0,0.0,92,0.00,CLR,,0.00,0.0,WeatherDisplay:10.37,2013-01-14 00:27:00,
2013-01-14 00:32:00,34.4,32.0,29.94,SW,220,0.0,0.0,91,0.00,CLR,,0.00,0.0,WeatherDisplay:10.37,2013-01-14 00:32:00,
2013-01-14 00:37:00,34.2,32.1,29.94,SW,220,0.0,0.0,92,0.00,CLR,,0.00,0.0,WeatherDisplay:10.37,2013-01-14 00:37:00,
2013-01-14 00:42:00,34.1,31.7,29.94,SW,219,0.0,0.0,91,0.00,CLR,,0.00,0.0,WeatherDisplay:10.37,2013-01-14 00:42:00,
2013-01-14 00:47:00,34.0,31.6,29.94,SW,221,0.0,0.0,91,0.00,CLR,,0.00,0.0,WeatherDisplay:10.37,2013-01-14 00:47:00,
2013-01-14 00:52:00,33.8,31.5,29.94,SW,221,0.0,0.0,91,0.00,CLR,,0.00,0.0,WeatherDisplay:10.37,2013-01-14 00:52:00,
2013-01-14 00:57:00,33.7,31.4,29.94,SW,219,0.0,0.0,91,0.00,CLR,,0.00,0.0,WeatherDisplay:10.37,2013-01-14 00:57:00,
2013-01-14 01:02:00,33.7,31.4,29.94,SW,221,0.0,0.0,91,0.00,CLR,,0.00,0.0,WeatherDisplay:10.37,2013-01-14 01:02:00,
2013-01-14 01:07:00,33.6,31.5,29.93,SW,221,0.0,0.0,92,0.00,CLR,,0.00,0.0,WeatherDisplay:10.37,2013-01-14 01:07:00,
2013-01-14 01:12:00,33.6,31.5,29.93,SW,221,0.0,0.0,92,0.00,CLR,,0.00,0.0,WeatherDisplay:10.37,2013-01-14 01:12:00,
2013-01-14 01:17:00,33.7,31.6,29.93,SW,221,0.0,0.0,92,0.00,CLR,,0.00,0.0,WeatherDisplay:10.37,2013-01-14 01:17:00,
2013-01-14 01:22:00,33.7,31.6,29.93,SW,220,0.0,0.0,92,0.00,CLR,,0.00,0.0,WeatherDisplay:10.37,2013-01-14 01:22:00,
2013-01-14 01:27:00,33.8,31.7,29.93,SW,221,0.0,0.0,92,0.00,CLR,,0.00,0.0,WeatherDisplay:10.37,2013-01-14 01:27:00,
2013-01-14 01:32:00,33.8,31.7,29.93,SW,221,0.0,0.0,92,0.00,CLR,,0.00,0.0,WeatherDisplay:10.37,2013-01-14 01:32:00,
2013-01-14 01:37:00,33.9,32.1,29.92,SW,220,0.0,0.0,93,0.00,CLR,,0.00,0.0,WeatherDisplay:10.37,2013-01-14 01:37:00,
2013-01-14 01:42:00,34.0,32.2,29.92,SW,221,0.0,0.0,93,0.00,CLR,,0.00,0.0,WeatherDisplay:10.37,2013-01-14 01:42:00,
2013-01-14 01:47:00,34.0,32.2,29.92,SW,221,0.0,0.0,93,0.00,CLR,,0.00,0.0,WeatherDisplay:10.37,2013-01-14 01:47:00,
2013-01-14 01:52:00,34.0,31.9,29.92,SW,221,0.0,0.0,92,0.00,CLR,,0.00,0.0,WeatherDisplay:10.37,2013-01-14 01:52:00,
2013-01-14 01:57:00,34.0,31.9,29.92,SW,219,0.0,0.0,92,0.00,CLR,,0.00,0.0,WeatherDisplay:10.37,2013-01-14 01:57:00,
2013-01-14 02:02:00,34.0,31.9,29.92,SW,221,0.0,0.0,92,0.00,CLR,,0.00,0.0,WeatherDisplay:10.37,2013-01-14 02:02:00,
2013-01-14 02:07:00,34.0,31.9,29.91,SW,221,0.0,0.0,92,0.00,CLR,,0.00,0.0,WeatherDisplay:10.37,2013-01-14 02:07:00,
2013-01-14 02:12:00,34.0,31.9,29.91,SW,221,0.0,0.0,92,0.00,CLR,,0.00,0.0,WeatherDisplay:10.37,2013-01-14 02:12:00,
2013-01-14 02:17:00,34.0,31.9,29.90,SW,220,0.0,0.0,92,0.00,CLR,,0.00,0.0,WeatherDisplay:10.37,2013-01-14 02:17:00,
2013-01-14 02:22:00,34.0,31.9,29.90,SW,220,0.0,0.0,92,0.00,CLR,,0.00,0.0,WeatherDisplay:10.37,2013-01-14 02:22:00,
2013-01-14 02:27:00,34.0,31.9,29.90,SW,221,0.0,0.0,92,0.00,CLR,,0.00,0.0,WeatherDisplay:10.37,2013-01-14 02:27:00,
2013-01-14 02:32:00,34.0,31.9,29.90,SW,221,0.0,0.0,92,0.00,CLR,,0.00,0.0,WeatherDisplay:10.37,2013-01-14 02:32:00,
2013-01-14 02:37:00,34.0,31.9,29.90,SW,219,0.0,0.0,92,0.00,CLR,,0.00,0.0,WeatherDisplay:10.37,2013-01-14 02:37:00,
2013-01-14 02:42:00,34.0,31.9,29.90,SW,221,2.3,2.3,92,0.00,CLR,,0.00,0.0,WeatherDisplay:10.37,2013-01-14 02:42:00,
2013-01-14 02:47:00,34.0,32.2,29.89,SSE,161,5.8,5.8,93,0.00,CLR,,0.00,0.0,WeatherDisplay:10.37,2013-01-14 02:47:00,
2013-01-14 02:52:00,34.1,32.3,29.89,SSE,160,3.5,3.5,93,0.00,CLR,,0.00,0.0,WeatherDisplay:10.37,2013-01-14 02:52:00,
2013-01-14 02:57:00,34.2,32.4,29.89,SSE,159,3.5,3.5,93,0.00,CLR,,0.00,0.0,WeatherDisplay:10.37,2013-01-14 02:57:00,
2013-01-14 03:02:00,34.2,32.4,29.89,SSE,159,0.0,0.0,93,0.00,CLR,,0.00,0.0,WeatherDisplay:10.37,2013-01-14 03:02:00,
2013-01-14 03:07:00,34.2,32.4,29.88,SSE,160,0.0,0.0,93,0.00,CLR,,0.00,0.0,WeatherDisplay:10.37,2013-01-14 03:07:00,
2013-01-14 03:12:00,34.2,32.4,29.88,SSE,160,0.0,0.0,93,0.00,CLR,,0.00,0.0,WeatherDisplay:10.37,2013-01-14 03:12:00,
2013-01-14 03:17:00,34.2,32.4,29.88,SSE,159,0.0,0.0,93,0.00,CLR,,0.00,0.0,WeatherDisplay:10.37,2013-01-14 03:17:00,
2013-01-14 03:22:00,34.2,32.4,29.88,SSE,159,0.0,0.0,93,0.00,CLR,,0.00,0.0,WeatherDisplay:10.37,2013-01-14 03:22:00,
2013-01-14 03:27:00,34.2,32.4,29.87,SSE,160,0.0,0.0,93,0.00,CLR,,0.00,0.0,WeatherDisplay:10.37,2013-01-14 03:27:00,
2013-01-14 03:32:00,34.2,32.4,29.87,SSE,159,0.0,0.0,93,0.00,CLR,,0.00,0.0,WeatherDisplay:10.37,2013-01-14 03:32:00,
2013-01-14 03:37:00,34.2,32.4,29.87,SSE,159,0.0,0.0,93,0.00,CLR,,0.00,0.0,WeatherDisplay:10.37,2013-01-14 03:37:00,
2013-01-14 03:42:00,34.3,32.5,29.86,SSE,159,0.0,0.0,93,0.00,CLR,,0.00,0.0,WeatherDisplay:10.37,2013-01-14 03:42:00,
2013-01-14 03:47:00,34.3,32.5,29.86,SSE,159,0.0,0.0,93,0.00,CLR,,0.00,0.0,WeatherDisplay:10.37,2013-01-14 03:47:00,
2013-01-14 03:52:00,34.3,32.5,29.86,SSE,159,0.0,0.0,93,0.00,CLR,,0.00,0.0,WeatherDisplay:10.37,2013-01-14 03:52:00,
2013-01-14 03:57:00,34.3,32.5,29.85,SSE,160,0.0,0.0,93,0.00,CLR,,0.00,0.0,WeatherDisplay:10.37,2013-01-14 03:57:00,
2013-01-14 04:02:00,34.4,32.6,29.85,SSE,160,0.0,0.0,93,0.00,CLR,,0.00,0.0,WeatherDisplay:10.37,2013-01-14 04:02:00,
2013-01-14 04:08:00,34.4,32.6,29.84,SSE,160,0.0,0.0,93,0.00,CLR,,0.00,0.0,WeatherDisplay:10.37,2013-01-14 04:08:00,
2013-01-14 04:13:00,34.4,32.6,29.84,SSE,160,0.0,0.0,93,0.00,CLR,,0.00,0.0,WeatherDisplay:10.37,2013-01-14 04:13:00,
2013-01-14 04:18:00,34.4,32.6,29.84,SSE,159,0.0,0.0,93,0.00,CLR,,0.00,0.0,WeatherDisplay:10.37,2013-01-14 04:18:00,
2013-01-14 04:23:00,34.5,32.7,29.84,SSE,159,0.0,0.0,93,0.00,CLR,,0.00,0.0,WeatherDisplay:10.37,2013-01-14 04:23:00,
2013-01-14 04:28:00,34.5,32.7,29.83,SSE,159,0.0,0.0,93,0.00,CLR,,0.00,0.0,WeatherDisplay:10.37,2013-01-14 04:28:00,
2013-01-14 04:33:00,34.5,32.7,29.83,SSE,160,0.0,0.0,93,0.00,CLR,,0.00,0.0,WeatherDisplay:10.37,2013-01-14 04:33:00,
2013-01-14 04:38:00,34.6,32.8,29.83,SSE,159,3.5,3.5,93,0.00,CLR,,0.00,0.0,WeatherDisplay:10.37,2013-01-14 04:38:00,
2013-01-14 04:43:00,34.7,32.9,29.82,SSE,159,2.3,0.0,93,0.00,CLR,,0.00,0.0,WeatherDisplay:10.37,2013-01-14 04:43:00,
2013-01-14 04:48:00,34.7,32.9,29.82,SSE,159,1.1,1.1,93,0.00,CLR,,0.00,0.0,WeatherDisplay:10.37,2013-01-14 04:48:00,
2013-01-14 04:53:00,34.8,33.0,29.82,SSE,160,0.0,0.0,93,0.00,CLR,,0.00,0.0,WeatherDisplay:10.37,2013-01-14 04:53:00,
2013-01-14 04:58:00,34.8,33.0,29.81,SSE,159,2.0,2.0,93,0.00,CLR,,0.00,0.0,WeatherDisplay:10.37,2013-01-14 04:58:00,
2013-01-14 05:01:00,34.9,33.1,29.81,SSE,159,0.0,0.0,93,0.00,CLR,,0.00,0.0,WeatherDisplay:10.37,2013-01-14 05:01:00,
2013-01-14 05:02:00,34.9,33.1,29.81,SSE,159,0.0,0.0,93,0.00,CLR,,0.00,0.0,WeatherDisplay:10.37,2013-01-14 05:02:00,
2013-01-14 05:03:00,34.9,33.1,29.81,SSE,159,0.0,0.0,93,0.00,CLR,,0.00,0.0,WeatherDisplay:10.37,2013-01-14 05:03:00,
2013-01-14 05:08:00,34.9,33.1,29.81,SSE,159,0.0,0.0,93,0.00,CLR,,0.00,0.0,WeatherDisplay:10.37,2013-01-14 05:08:00,
2013-01-14 05:13:00,34.9,33.1,29.81,SSE,159,1.1,1.1,93,0.01,RA,,0.01,0.0,WeatherDisplay:10.37,2013-01-14 05:13:00,
2013-01-14 05:18:00,35.0,33.2,29.80,SSE,168,3.5,3.5,93,0.01,RA,,0.01,0.0,WeatherDisplay:10.37,2013-01-14 05:18:00,
2013-01-14 05:23:00,35.2,33.4,29.80,South,173,4.6,4.6,93,0.02,RA,,0.02,0.0,WeatherDisplay:10.37,2013-01-14 05:23:00,
2013-01-14 05:28:00,35.4,33.8,29.80,South,187,5.8,5.8,94,0.02,RA,,0.02,0.0,WeatherDisplay:10.37,2013-01-14 05:28:00,
2013-01-14 05:33:00,35.6,34.0,29.79,South,173,4.6,4.6,94,0.02,CLR,,0.02,0.0,WeatherDisplay:10.37,2013-01-14 05:33:00,
2013-01-14 05:38:00,35.8,34.2,29.78,South,178,5.8,5.8,94,0.02,CLR,,0.02,0.0,WeatherDisplay:10.37,2013-01-14 05:38:00,
2013-01-14 05:43:00,35.9,34.3,29.78,SSE,165,4.6,4.6,94,0.02,CLR,,0.02,0.0,WeatherDisplay:10.37,2013-01-14 05:43:00,
2013-01-14 05:48:00,36.0,34.4,29.78,South,178,4.6,4.6,94,0.02,CLR,,0.02,0.0,WeatherDisplay:10.37,2013-01-14 05:48:00,
2013-01-14 05:53:00,36.1,34.5,29.77,SSW,206,8.0,8.0,94,0.02,CLR,,0.02,0.0,WeatherDisplay:10.37,2013-01-14 05:53:00,
2013-01-14 05:58:00,36.3,34.7,29.78,SSW,207,12.7,12.7,94,0.02,CLR,,0.02,0.0,WeatherDisplay:10.37,2013-01-14 05:58:00,
2013-01-14 06:03:00,36.5,34.9,29.77,SSE,157,13.8,13.8,94,0.02,RA,,0.02,0.0,WeatherDisplay:10.37,2013-01-14 06:03:00,
2013-01-14 06:08:00,36.7,35.1,29.77,SSW,194,12.7,12.7,94,0.02,RA,,0.02,0.0,WeatherDisplay:10.37,2013-01-14 06:08:00,
2013-01-14 06:13:00,36.8,35.0,29.77,South,182,12.7,12.7,93,0.02,,,0.02,0.0,WeatherDisplay:10.37,2013-01-14 06:13:00,
2013-01-14 06:18:00,36.9,35.1,29.77,SW,235,5.8,5.8,93,0.02,CLR,,0.02,0.0,WeatherDisplay:10.37,2013-01-14 06:18:00,
2013-01-14 06:23:00,36.9,34.8,29.77,South,173,15.0,15.0,92,0.01,CLR,,0.02,0.0,WeatherDisplay:10.37,2013-01-14 06:23:00,
2013-01-14 06:28:00,37.0,34.9,29.77,SSW,198,9.2,9.2,92,0.01,CLR,,0.02,0.0,WeatherDisplay:10.37,2013-01-14 06:28:00,
2013-01-14 06:33:00,37.1,35.0,29.77,SSW,207,12.7,12.7,92,0.01,CLR,,0.02,0.0,WeatherDisplay:10.37,2013-01-14 06:33:00,
2013-01-14 06:38:00,37.1,35.0,29.77,SW,218,11.5,11.5,92,0.01,CLR,,0.02,0.0,WeatherDisplay:10.37,2013-01-14 06:38:00,
2013-01-14 06:43:00,37.1,34.7,29.77,SW,229,11.5,11.5,91,0.01,CLR,,0.02,0.0,WeatherDisplay:10.37,2013-01-14 06:43:00,
2013-01-14 06:48:00,37.1,34.7,29.77,SSW,209,11.5,11.5,91,0.01,CLR,,0.02,0.0,WeatherDisplay:10.37,2013-01-14 06:48:00,
2013-01-14 06:53:00,37.1,34.7,29.76,SW,235,10.4,10.4,91,0.01,CLR,,0.02,0.0,WeatherDisplay:10.37,2013-01-14 06:53:00,
2013-01-14 06:58:00,37.1,34.7,29.76,SW,233,9.2,9.2,91,0.01,CLR,,0.02,0.0,WeatherDisplay:10.37,2013-01-14 06:58:00,
2013-01-14 07:03:00,37.1,34.7,29.76,SSW,212,6.9,6.9,91,0.00,CLR,,0.02,0.0,WeatherDisplay:10.37,2013-01-14 07:03:00,
2013-01-14 07:08:00,37.2,34.8,29.76,SW,232,9.2,9.2,91,0.00,CLR,,0.02,0.0,WeatherDisplay:10.37,2013-01-14 07:08:00,
2013-01-14 07:13:00,37.2,34.8,29.77,WSW,244,3.5,3.5,91,0.00,CLR,,0.02,0.0,WeatherDisplay:10.37,2013-01-14 07:13:00,
2013-01-14 07:18:00,37.2,34.8,29.77,WSW,242,10.4,10.4,91,0.00,CLR,,0.02,0.0,WeatherDisplay:10.37,2013-01-14 07:18:00,
2013-01-14 07:23:00,37.3,34.9,29.77,SW,223,8.1,8.1,91,0.00,CLR,,0.02,0.0,WeatherDisplay:10.37,2013-01-14 07:23:00,
2013-01-14 07:29:00,37.3,34.9,29.77,SW,232,5.8,5.8,91,0.00,CLR,,0.02,0.0,WeatherDisplay:10.37,2013-01-14 07:29:00,
2013-01-14 07:34:00,37.3,34.9,29.77,WNW,288,4.6,4.6,91,0.00,CLR,,0.02,0.0,WeatherDisplay:10.37,2013-01-14 07:34:00,
2013-01-14 07:39:00,37.4,35.0,29.77,NW,310,6.9,6.9,91,0.00,CLR,,0.02,0.0,WeatherDisplay:10.37,2013-01-14 07:39:00,
2013-01-14 07:44:00,37.3,34.9,29.77,NW,309,4.0,4.0,91,0.00,CLR,,0.02,0.0,WeatherDisplay:10.37,2013-01-14 07:44:00,
2013-01-14 07:49:00,37.3,34.9,29.77,NW,307,3.5,3.5,91,0.00,CLR,,0.02,0.0,WeatherDisplay:10.37,2013-01-14 07:49:00,
2013-01-14 07:54:00,37.2,34.8,29.77,NW,308,3.5,3.5,91,0.00,CLR,,0.02,0.0,WeatherDisplay:10.37,2013-01-14 07:54:00,
2013-01-14 07:59:00,37.1,34.7,29.78,NW,308,3.5,3.5,91,0.00,CLR,,0.02,0.0,WeatherDisplay:10.37,2013-01-14 07:59:00,
2013-01-14 08:04:00,36.9,34.2,29.78,NW,309,3.5,3.5,90,0.00,CLR,,0.02,0.0,WeatherDisplay:10.37,2013-01-14 08:04:00,
2013-01-14 08:09:00,36.6,33.9,29.78,NW,309,0.0,0.0,90,0.00,OVC,,0.02,0.0,WeatherDisplay:10.37,2013-01-14 08:09:00,
2013-01-14 08:14:00,36.4,33.7,29.78,NW,309,2.3,2.3,90,0.00,OVC,,0.02,0.0,WeatherDisplay:10.37,2013-01-14 08:14:00,
2013-01-14 08:19:00,36.1,33.5,29.78,NW,309,0.0,0.1,90,0.00,OVC,,0.02,0.0,WeatherDisplay:10.37,2013-01-14 08:19:00,
2013-01-14 08:24:00,35.8,32.9,29.78,NW,308,0.0,0.0,89,0.00,OVC,,0.02,0.0,WeatherDisplay:10.37,2013-01-14 08:24:00,
2013-01-14 08:29:00,35.5,32.9,29.78,NW,309,0.0,0.0,90,0.00,OVC,,0.02,0.0,WeatherDisplay:10.37,2013-01-14 08:29:00,
2013-01-14 08:34:00,35.2,32.6,29.79,NW,309,0.0,0.0,90,0.00,OVC,,0.02,0.0,WeatherDisplay:10.37,2013-01-14 08:34:00,
2013-01-14 08:39:00,34.9,32.0,29.79,NW,309,0.0,0.0,89,0.00,OVC,,0.02,0.0,WeatherDisplay:10.37,2013-01-14 08:39:00,
2013-01-14 08:44:00,34.6,31.7,29.78,SW,233,3.0,3.0,89,0.00,OVC,,0.02,5.0,WeatherDisplay:10.37,2013-01-14 08:44:00,
2013-01-14 08:49:00,34.4,31.5,29.78,SW,234,0.0,0.0,89,0.00,FEW,,0.02,5.0,WeatherDisplay:10.37,2013-01-14 08:49:00,
2013-01-14 08:54:00,34.1,31.2,29.79,SW,234,1.1,0.0,89,0.00,SCT,,0.02,7.0,WeatherDisplay:10.37,2013-01-14 08:54:00,
2013-01-14 08:59:00,33.9,31.0,29.79,SW,234,3.5,0.0,89,0.00,BKN,,0.02,7.0,WeatherDisplay:10.37,2013-01-14 08:59:00,
2013-01-14 09:04:00,33.6,31.0,29.79,SW,234,0.0,0.0,90,0.00,BKN,,0.02,9.0,WeatherDisplay:10.37,2013-01-14 09:04:00,
2013-01-14 09:09:00,33.4,30.8,29.79,SW,234,0.0,0.0,90,0.00,BKN,,0.02,9.0,WeatherDisplay:10.37,2013-01-14 09:09:00,
2013-01-14 09:14:00,33.3,30.7,29.78,SW,234,0.0,0.0,90,0.00,BKN,,0.02,11.0,WeatherDisplay:10.37,2013-01-14 09:14:00,
2013-01-14 09:19:00,33.0,30.4,29.78,WSW,245,3.5,3.5,90,0.00,BKN,,0.02,12.0,WeatherDisplay:10.37,2013-01-14 09:19:00,
2013-01-14 09:24:00,32.8,30.2,29.79,West,272,2.3,2.3,90,0.00,BKN,,0.02,21.0,WeatherDisplay:10.37,2013-01-14 09:24:00,
2013-01-14 09:29:00,32.7,30.1,29.78,NW,305,2.3,2.3,90,0.00,SCT,,0.02,26.0,WeatherDisplay:10.37,2013-01-14 09:29:00,
2013-01-14 09:34:00,32.7,30.4,29.78,NW,305,0.0,0.0,91,0.00,SCT,,0.02,33.0,WeatherDisplay:10.37,2013-01-14 09:34:00,
2013-01-14 09:39:00,32.7,30.4,29.78,NW,304,2.3,2.3,91,0.00,SCT,,0.02,42.0,WeatherDisplay:10.37,2013-01-14 09:39:00,
2013-01-14 09:44:00,32.7,30.4,29.78,NW,304,2.0,2.0,91,0.00,SCT,,0.02,49.0,WeatherDisplay:10.37,2013-01-14 09:44:00,
2013-01-14 09:49:00,32.6,30.3,29.77,NW,305,0.0,0.0,91,0.00,SCT,,0.02,56.0,WeatherDisplay:10.37,2013-01-14 09:49:00,
2013-01-14 09:54:00,32.5,30.2,29.77,NW,305,0.0,0.0,91,0.00,FEW,,0.02,63.0,WeatherDisplay:10.37,2013-01-14 09:54:00,
2013-01-14 09:59:00,32.5,30.2,29.77,NW,304,2.3,2.3,91,0.00,FEW,,0.02,74.0,WeatherDisplay:10.37,2013-01-14 09:59:00,
2013-01-14 10:04:00,32.5,30.2,29.77,NW,304,0.0,0.0,91,0.00,CLR,,0.02,81.0,WeatherDisplay:10.37,2013-01-14 10:04:00,
2013-01-14 10:09:00,32.6,30.3,29.77,NW,304,0.0,0.0,91,0.00,CLR,,0.02,91.0,WeatherDisplay:10.37,2013-01-14 10:09:00,
2013-01-14 10:14:00,32.7,30.6,29.77,NW,304,0.0,0.0,92,0.00,CLR,,0.02,118.0,WeatherDisplay:10.37,2013-01-14 10:14:00,
2013-01-14 10:19:00,32.7,30.6,29.76,NW,305,3.5,3.5,92,0.00,CLR,,0.02,134.0,WeatherDisplay:10.37,2013-01-14 10:19:00,
2013-01-14 10:24:00,33.0,30.9,29.77,WNW,291,3.5,3.5,92,0.00,CLR,,0.02,137.0,WeatherDisplay:10.37,2013-01-14 10:24:00,
2013-01-14 10:29:00,33.4,31.6,29.77,WSW,245,2.3,2.3,93,0.00,CLR,,0.02,137.0,WeatherDisplay:10.37,2013-01-14 10:29:00,
2013-01-14 10:34:00,33.8,32.0,29.76,WSW,246,2.3,2.3,93,0.00,CLR,,0.02,132.0,WeatherDisplay:10.37,2013-01-14 10:34:00,
2013-01-14 10:39:00,34.1,32.3,29.76,WSW,246,2.3,0.0,93,0.00,CLR,,0.02,54.0,WeatherDisplay:10.37,2013-01-14 10:39:00,
2013-01-14 10:44:00,34.3,32.5,29.76,SW,232,0.0,0.0,93,0.00,SCT,,0.02,44.0,WeatherDisplay:10.37,2013-01-14 10:44:00,
2013-01-14 10:49:00,34.5,32.7,29.76,SW,232,0.0,0.0,93,0.00,BKN,,0.02,40.0,WeatherDisplay:10.37,2013-01-14 10:49:00,
2013-01-14 10:54:00,34.7,32.9,29.76,SW,232,0.0,0.0,93,0.00,BKN,,0.02,40.0,WeatherDisplay:10.37,2013-01-14 10:54:00,
2013-01-14 10:59:00,34.8,32.7,29.76,SW,232,0.0,0.0,92,0.00,BKN,,0.02,39.0,WeatherDisplay:10.37,2013-01-14 10:59:00,
2013-01-14 11:04:00,34.9,32.8,29.76,SW,232,0.0,0.0,92,0.00,BKN,,0.02,39.0,WeatherDisplay:10.37,2013-01-14 11:04:00,
2013-01-14 11:09:00,34.9,32.8,29.76,SW,232,1.1,1.1,92,0.00,BKN,,0.02,39.0,WeatherDisplay:10.37,2013-01-14 11:09:00,
2013-01-14 11:14:00,35.0,32.9,29.76,SW,231,0.0,0.0,92,0.00,BKN,,0.02,40.0,WeatherDisplay:10.37,2013-01-14 11:14:00,
2013-01-14 11:19:00,35.0,32.6,29.76,SW,232,0.0,0.0,91,0.00,BKN,,0.02,44.0,WeatherDisplay:10.37,2013-01-14 11:19:00,
2013-01-14 11:24:00,35.1,32.7,29.76,SW,231,0.0,0.0,91,0.00,BKN,,0.02,47.0,WeatherDisplay:10.37,2013-01-14 11:24:00,
2013-01-14 11:29:00,35.1,32.7,29.76,SW,232,2.3,2.3,91,0.00,BKN,,0.02,54.0,WeatherDisplay:10.37,2013-01-14 11:29:00,
2013-01-14 11:34:00,35.2,32.8,29.75,SW,232,2.3,0.0,91,0.00,BKN,,0.02,58.0,WeatherDisplay:10.37,2013-01-14 11:34:00,
2013-01-14 11:39:00,35.2,32.8,29.75,SW,232,3.5,0.0,91,0.00,BKN,,0.02,56.0,WeatherDisplay:10.37,2013-01-14 11:39:00,
2013-01-14 11:44:00,35.2,32.8,29.75,SW,232,0.0,0.0,91,0.00,BKN,,0.02,62.0,WeatherDisplay:10.37,2013-01-14 11:44:00,
2013-01-14 11:49:00,35.3,32.9,29.75,SW,232,0.0,0.0,91,0.00,BKN,,0.02,67.0,WeatherDisplay:10.37,2013-01-14 11:49:00,
2013-01-14 11:54:00,35.4,33.0,29.75,SW,232,0.0,0.0,91,0.00,BKN,,0.02,60.0,WeatherDisplay:10.37,2013-01-14 11:54:00,
2013-01-14 11:59:00,35.5,32.9,29.75,SW,232,0.0,0.0,90,0.00,BKN,,0.02,60.0,WeatherDisplay:10.37,2013-01-14 11:59:00,
2013-01-14 12:04:00,35.6,33.0,29.74,SW,232,0.0,0.0,90,0.00,BKN,,0.02,69.0,WeatherDisplay:10.37,2013-01-14 12:04:00,
2013-01-14 12:09:00,35.6,33.0,29.74,SW,233,3.5,0.0,90,0.00,BKN,,0.02,104.0,WeatherDisplay:10.37,2013-01-14 12:09:00,
2013-01-14 12:14:00,35.7,33.1,29.74,SW,232,0.0,0.1,90,0.00,SCT,,0.02,95.0,WeatherDisplay:10.37,2013-01-14 12:14:00,
2013-01-14 12:19:00,35.8,33.2,29.74,SW,232,0.0,0.4,90,0.00,SCT,,0.02,98.0,WeatherDisplay:10.37,2013-01-14 12:19:00,
2013-01-14 12:24:00,36.0,33.4,29.74,SW,232,0.0,1.2,90,0.00,SCT,,0.02,125.0,WeatherDisplay:10.37,2013-01-14 12:24:00,
2013-01-14 12:29:00,36.1,33.2,29.74,SW,232,0.0,0.0,89,0.00,SCT,,0.02,76.0,WeatherDisplay:10.37,2013-01-14 12:29:00,
2013-01-14 12:34:00,36.3,33.4,29.74,SW,232,0.0,0.0,89,0.00,SCT,,0.02,70.0,WeatherDisplay:10.37,2013-01-14 12:34:00,
2013-01-14 12:40:00,36.5,33.6,29.74,SW,232,1.1,1.1,89,0.00,BKN,,0.02,67.0,WeatherDisplay:10.37,2013-01-14 12:40:00,
2013-01-14 12:45:00,36.6,33.4,29.74,West,260,1.1,0.0,88,0.00,BKN,,0.02,74.0,WeatherDisplay:10.37,2013-01-14 12:45:00,
2013-01-14 12:50:00,36.7,33.5,29.73,WNW,296,4.0,4.0,88,0.00,SCT,,0.02,95.0,WeatherDisplay:10.37,2013-01-14 12:50:00,
2013-01-14 12:55:00,36.7,33.2,29.73,WNW,300,0.0,0.0,87,0.00,SCT,,0.02,98.0,WeatherDisplay:10.37,2013-01-14 12:55:00,
2013-01-14 13:00:00,36.9,33.4,29.73,WNW,301,1.1,1.1,87,0.00,SCT,,0.02,121.0,WeatherDisplay:10.37,2013-01-14 13:00:00,
2013-01-14 13:05:00,37.0,33.5,29.73,WNW,302,2.3,0.0,87,0.00,SCT,,0.02,97.0,WeatherDisplay:10.37,2013-01-14 13:05:00,
2013-01-14 13:10:00,37.1,33.6,29.73,WNW,302,3.5,3.5,87,0.00,SCT,,0.02,83.0,WeatherDisplay:10.37,2013-01-14 13:10:00,
2013-01-14 13:15:00,37.2,33.4,29.73,NW,306,3.5,3.5,86,0.00,SCT,,0.02,72.0,WeatherDisplay:10.37,2013-01-14 13:15:00,
2013-01-14 13:20:00,37.3,33.2,29.73,WSW,258,3.5,3.5,85,0.00,BKN,,0.02,42.0,WeatherDisplay:10.37,2013-01-14 13:20:00,
2013-01-14 13:25:00,37.4,33.3,29.73,NW,307,4.6,4.6,85,0.00,BKN,,0.02,39.0,WeatherDisplay:10.37,2013-01-14 13:25:00,
2013-01-14 13:30:00,37.4,33.3,29.74,WNW,298,2.3,2.3,85,0.00,BKN,,0.02,44.0,WeatherDisplay:10.37,2013-01-14 13:30:00,
2013-01-14 13:35:00,37.5,33.4,29.74,NW,304,3.5,3.5,85,0.00,BKN,,0.02,47.0,WeatherDisplay:10.37,2013-01-14 13:35:00,
2013-01-14 13:40:00,37.5,33.4,29.73,NW,304,3.5,3.5,85,0.00,BKN,,0.02,42.0,WeatherDisplay:10.37,2013-01-14 13:40:00,
2013-01-14 13:45:00,37.5,33.4,29.73,NW,304,0.0,0.0,85,0.00,BKN,,0.02,42.0,WeatherDisplay:10.37,2013-01-14 13:45:00,
2013-01-14 13:50:00,37.6,33.5,29.73,WNW,292,2.0,2.0,85,0.00,BKN,,0.02,60.0,WeatherDisplay:10.37,2013-01-14 13:50:00,
2013-01-14 13:55:00,37.6,33.5,29.73,WNW,291,1.1,1.1,85,0.00,SCT,,0.02,120.0,WeatherDisplay:10.37,2013-01-14 13:55:00,
2013-01-14 14:00:00,37.5,33.4,29.73,WNW,292,3.5,3.5,85,0.00,FEW,,0.02,151.0,WeatherDisplay:10.37,2013-01-14 14:00:00,
2013-01-14 14:05:00,37.6,33.5,29.73,WNW,299,3.5,3.5,85,0.00,CLR,,0.02,88.0,WeatherDisplay:10.37,2013-01-14 14:05:00,
2013-01-14 14:10:00,37.6,33.5,29.73,WNW,300,3.5,3.5,85,0.00,FEW,,0.02,70.0,WeatherDisplay:10.37,2013-01-14 14:10:00,
2013-01-14 14:15:00,37.7,33.6,29.73,WNW,300,2.3,2.3,85,0.00,SCT,,0.02,72.0,WeatherDisplay:10.37,2013-01-14 14:15:00,
2013-01-14 14:20:00,37.8,33.4,29.73,WNW,298,2.3,2.3,84,0.00,SCT,,0.02,70.0,WeatherDisplay:10.37,2013-01-14 14:20:00,
2013-01-14 14:25:00,37.8,33.4,29.73,NW,306,3.5,3.5,84,0.00,SCT,,0.02,95.0,WeatherDisplay:10.37,2013-01-14 14:25:00,
2013-01-14 14:30:00,37.8,33.4,29.73,NW,324,3.5,3.5,84,0.00,CLR,,0.02,121.0,WeatherDisplay:10.37,2013-01-14 14:30:00,
2013-01-14 14:35:00,37.9,33.5,29.73,NW,310,2.3,2.3,84,0.00,CLR,,0.02,102.0,WeatherDisplay:10.37,2013-01-14 14:35:00,
2013-01-14 14:40:00,37.9,33.2,29.73,NW,307,2.3,2.3,83,0.00,CLR,,0.02,91.0,WeatherDisplay:10.37,2013-01-14 14:40:00,
2013-01-14 14:45:00,38.0,33.3,29.73,NNW,336,3.5,3.5,83,0.00,CLR,,0.02,84.0,WeatherDisplay:10.37,2013-01-14 14:45:00,
2013-01-14 14:50:00,38.0,33.3,29.73,WNW,296,5.8,5.8,83,0.00,CLR,,0.02,76.0,WeatherDisplay:10.37,2013-01-14 14:50:00,
2013-01-14 14:55:00,38.0,33.0,29.73,NW,309,4.6,4.6,82,0.00,CLR,,0.02,62.0,WeatherDisplay:10.37,2013-01-14 14:55:00,
2013-01-14 15:00:00,38.0,33.0,29.73,NW,313,3.5,3.5,82,0.00,FEW,,0.02,46.0,WeatherDisplay:10.37,2013-01-14 15:00:00,
2013-01-14 15:05:00,38.0,33.3,29.73,NW,313,3.5,3.5,83,0.00,SCT,,0.02,35.0,WeatherDisplay:10.37,2013-01-14 15:05:00,
2013-01-14 15:10:00,38.0,33.0,29.73,WNW,302,4.6,4.6,82,0.00,SCT,,0.02,30.0,WeatherDisplay:10.37,2013-01-14 15:10:00,
2013-01-14 15:15:00,37.9,32.9,29.74,WNW,302,4.0,4.0,82,0.00,BKN,,0.02,23.0,WeatherDisplay:10.37,2013-01-14 15:15:00,
2013-01-14 15:20:00,37.8,32.8,29.73,WNW,302,1.1,0.0,82,0.00,BKN,,0.02,16.0,WeatherDisplay:10.37,2013-01-14 15:20:00,
2013-01-14 15:25:00,37.6,32.6,29.73,WNW,302,0.0,0.0,82,0.00,BKN,,0.02,12.0,WeatherDisplay:10.37,2013-01-14 15:25:00,
2013-01-14 15:30:00,37.4,32.4,29.73,WNW,302,2.3,2.3,82,0.00,BKN,,0.02,12.0,WeatherDisplay:10.37,2013-01-14 15:30:00,
2013-01-14 15:35:00,37.2,32.2,29.73,WNW,302,0.0,0.0,82,0.00,BKN,,0.02,16.0,WeatherDisplay:10.37,2013-01-14 15:35:00,
2013-01-14 15:40:00,37.0,32.0,29.73,WNW,302,0.0,0.0,82,0.00,SCT,,0.02,18.0,WeatherDisplay:10.37,2013-01-14 15:40:00,
2013-01-14 15:45:00,36.7,31.7,29.73,WNW,301,0.0,0.0,82,0.00,SCT,,0.02,16.0,WeatherDisplay:10.37,2013-01-14 15:45:00,
2013-01-14 15:50:00,36.5,31.5,29.74,WNW,302,0.0,0.0,82,0.00,SCT,,0.02,12.0,WeatherDisplay:10.37,2013-01-14 15:50:00,
2013-01-14 15:55:00,36.2,31.2,29.73,WNW,302,0.0,0.0,82,0.00,SCT,,0.02,11.0,WeatherDisplay:10.37,2013-01-14 15:55:00,
2013-01-14 16:00:00,36.0,31.3,29.73,WNW,300,0.0,0.0,83,0.00,SCT,,0.02,7.0,WeatherDisplay:10.37,2013-01-14 16:00:00,
2013-01-14 16:05:00,35.8,31.1,29.74,WNW,302,0.0,0.0,83,0.00,SCT,,0.02,5.0,WeatherDisplay:10.37,2013-01-14 16:05:00,
2013-01-14 16:10:00,35.5,30.8,29.73,WNW,302,0.0,0.0,83,0.00,OVC,,0.02,0.0,WeatherDisplay:10.37,2013-01-14 16:10:00,
2013-01-14 16:15:00,35.3,30.7,29.73,WNW,302,0.0,0.0,83,0.00,OVC,,0.02,0.0,WeatherDisplay:10.37,2013-01-14 16:15:00,
2013-01-14 16:20:00,35.1,30.5,29.73,WNW,302,2.3,0.0,83,0.00,OVC,,0.02,0.0,WeatherDisplay:10.37,2013-01-14 16:20:00,
2013-01-14 16:25:00,34.8,30.2,29.73,WNW,302,0.0,0.0,83,0.00,OVC,,0.02,0.0,WeatherDisplay:10.37,2013-01-14 16:25:00,
2013-01-14 16:30:00,34.5,29.9,29.74,WNW,302,0.0,0.0,83,0.00,OVC,,0.02,0.0,WeatherDisplay:10.37,2013-01-14 16:30:00,
2013-01-14 16:35:00,34.3,29.7,29.74,WNW,301,0.0,0.0,83,0.00,OVC,,0.02,0.0,WeatherDisplay:10.37,2013-01-14 16:35:00,
2013-01-14 16:40:00,34.0,29.7,29.73,WNW,302,0.0,0.0,84,0.00,OVC,,0.02,0.0,WeatherDisplay:10.37,2013-01-14 16:40:00,
2013-01-14 16:45:00,33.8,29.5,29.74,WNW,302,2.3,2.3,84,0.00,CLR,,0.02,0.0,WeatherDisplay:10.37,2013-01-14 16:45:00,
2013-01-14 16:50:00,33.6,29.3,29.73,WNW,302,0.0,0.0,84,0.00,CLR,,0.02,0.0,WeatherDisplay:10.37,2013-01-14 16:50:00,
2013-01-14 16:55:00,33.5,29.5,29.74,WNW,302,2.3,2.3,85,0.00,CLR,,0.02,0.0,WeatherDisplay:10.37,2013-01-14 16:55:00,
2013-01-14 17:00:00,33.3,29.3,29.73,WNW,302,2.3,2.3,85,0.00,CLR,,0.02,0.0,WeatherDisplay:10.37,2013-01-14 17:00:00,
2013-01-14 17:05:00,33.1,29.4,29.73,NW,304,3.5,3.5,86,0.00,CLR,,0.02,0.0,WeatherDisplay:10.37,2013-01-14 17:05:00,
2013-01-14 17:10:00,33.0,29.3,29.73,WNW,303,0.0,0.0,86,0.00,CLR,,0.02,0.0,WeatherDisplay:10.37,2013-01-14 17:10:00,
2013-01-14 17:15:00,32.8,29.1,29.73,WNW,303,3.5,3.5,86,0.00,CLR,,0.02,0.0,WeatherDisplay:10.37,2013-01-14 17:15:00,
2013-01-14 17:20:00,32.7,29.0,29.73,NW,320,1.1,1.1,86,0.00,CLR,,0.02,0.0,WeatherDisplay:10.37,2013-01-14 17:20:00,
2013-01-14 17:25:00,32.7,29.3,29.73,NW,320,0.0,0.0,87,0.00,CLR,,0.02,0.0,WeatherDisplay:10.37,2013-01-14 17:25:00,
2013-01-14 17:30:00,32.7,29.3,29.73,WNW,303,3.5,3.5,87,0.00,CLR,,0.02,0.0,WeatherDisplay:10.37,2013-01-14 17:30:00,
2013-01-14 17:35:00,32.7,29.3,29.74,WNW,303,1.1,1.1,87,0.00,CLR,,0.02,0.0,WeatherDisplay:10.37,2013-01-14 17:35:00,
2013-01-14 17:40:00,32.7,29.3,29.74,WNW,303,0.0,0.0,87,0.00,CLR,,0.02,0.0,WeatherDisplay:10.37,2013-01-14 17:40:00,
2013-01-14 17:45:00,32.5,29.1,29.74,WNW,303,0.0,0.0,87,0.00,CLR,,0.02,0.0,WeatherDisplay:10.37,2013-01-14 17:45:00,
2013-01-14 17:50:00,32.3,28.9,29.73,WNW,303,0.0,0.0,87,0.00,CLR,,0.02,0.0,WeatherDisplay:10.37,2013-01-14 17:50:00,
2013-01-14 17:55:00,32.2,28.8,29.73,NW,304,0.0,0.0,87,0.00,CLR,,0.02,0.0,WeatherDisplay:10.37,2013-01-14 17:55:00,
2013-01-14 18:01:00,32.0,28.6,29.74,WNW,303,0.0,0.0,87,0.00,CLR,,0.02,0.0,WeatherDisplay:10.37,2013-01-14 18:01:00,
2013-01-14 18:06:00,31.9,28.5,29.74,WNW,303,0.0,0.0,87,0.00,CLR,,0.02,0.0,WeatherDisplay:10.37,2013-01-14 18:06:00,
2013-01-14 18:11:00,31.8,28.4,29.74,WNW,303,0.0,0.0,87,0.00,CLR,,0.02,0.0,WeatherDisplay:10.37,2013-01-14 18:11:00,
2013-01-14 18:16:00,31.7,28.3,29.74,NW,304,2.3,0.0,87,0.00,CLR,,0.02,0.0,WeatherDisplay:10.37,2013-01-14 18:16:00,
2013-01-14 18:21:00,31.6,28.2,29.74,WNW,303,0.0,0.0,87,0.00,CLR,,0.02,0.0,WeatherDisplay:10.37,2013-01-14 18:21:00,
2013-01-14 18:26:00,31.5,28.1,29.74,WNW,303,0.0,0.0,87,0.00,CLR,,0.02,0.0,WeatherDisplay:10.37,2013-01-14 18:26:00,
2013-01-14 18:31:00,31.5,28.1,29.74,NW,304,0.0,0.0,87,0.00,CLR,,0.02,0.0,WeatherDisplay:10.37,2013-01-14 18:31:00,
2013-01-14 18:36:00,31.5,28.1,29.75,NW,304,0.0,0.0,87,0.00,CLR,,0.02,0.0,WeatherDisplay:10.37,2013-01-14 18:36:00,
2013-01-14 18:41:00,31.4,28.0,29.74,NW,304,0.0,0.0,87,0.00,CLR,,0.02,0.0,WeatherDisplay:10.37,2013-01-14 18:41:00,
2013-01-14 18:46:00,31.3,27.9,29.75,WNW,303,0.0,0.0,87,0.00,CLR,,0.02,0.0,WeatherDisplay:10.37,2013-01-14 18:46:00,
2013-01-14 18:51:00,31.3,27.9,29.75,WNW,303,0.0,0.0,87,0.00,CLR,,0.02,0.0,WeatherDisplay:10.37,2013-01-14 18:51:00,
2013-01-14 18:56:00,31.2,28.1,29.75,WNW,303,0.0,0.0,88,0.00,CLR,,0.02,0.0,WeatherDisplay:10.37,2013-01-14 18:56:00,
2013-01-14 19:01:00,31.1,28.0,29.75,WNW,303,0.0,0.0,88,0.00,CLR,,0.02,0.0,WeatherDisplay:10.37,2013-01-14 19:01:00,
2013-01-14 19:06:00,31.0,27.9,29.75,NW,304,0.0,0.0,88,0.00,CLR,,0.02,0.0,WeatherDisplay:10.37,2013-01-14 19:06:00,
2013-01-14 19:11:00,30.9,27.8,29.75,WNW,303,0.0,0.0,88,0.00,CLR,,0.02,0.0,WeatherDisplay:10.37,2013-01-14 19:11:00,
2013-01-14 19:16:00,30.8,27.7,29.75,WNW,303,1.0,1.0,88,0.00,CLR,,0.02,0.0,WeatherDisplay:10.37,2013-01-14 19:16:00,
2013-01-14 19:21:00,30.7,27.6,29.75,WNW,303,0.0,0.0,88,0.00,CLR,,0.02,0.0,WeatherDisplay:10.37,2013-01-14 19:21:00,
2013-01-14 19:26:00,30.6,27.5,29.76,WNW,303,0.0,0.0,88,0.00,CLR,,0.02,0.0,WeatherDisplay:10.37,2013-01-14 19:26:00,
2013-01-14 19:31:00,30.5,27.4,29.76,NW,304,1.0,1.0,88,0.00,CLR,,0.02,0.0,WeatherDisplay:10.37,2013-01-14 19:31:00,
2013-01-14 19:36:00,30.4,27.3,29.76,WNW,303,0.0,0.7,88,0.00,CLR,,0.02,0.0,WeatherDisplay:10.37,2013-01-14 19:36:00,
2013-01-14 19:41:00,30.3,27.2,29.76,WNW,303,0.0,0.0,88,0.00,CLR,,0.02,0.0,WeatherDisplay:10.37,2013-01-14 19:41:00,
2013-01-14 19:46:00,30.2,27.1,29.76,WNW,303,0.0,0.0,88,0.00,CLR,,0.02,0.0,WeatherDisplay:10.37,2013-01-14 19:46:00,
2013-01-14 19:51:00,30.2,27.1,29.76,WNW,303,2.3,2.3,88,0.00,CLR,,0.02,0.0,WeatherDisplay:10.37,2013-01-14 19:51:00,
2013-01-14 19:56:00,30.1,27.0,29.76,WNW,303,0.0,0.0,88,0.00,CLR,,0.02,0.0,WeatherDisplay:10.37,2013-01-14 19:56:00,
2013-01-14 20:01:00,30.0,26.9,29.76,WNW,285,6.0,6.0,88,0.00,CLR,,0.02,0.0,WeatherDisplay:10.37,2013-01-14 20:01:00,
2013-01-14 20:06:00,30.1,27.3,29.76,WNW,285,3.5,3.5,89,0.00,CLR,,0.02,0.0,WeatherDisplay:10.37,2013-01-14 20:06:00,
2013-01-14 20:11:00,30.2,27.3,29.76,WNW,286,1.1,1.1,89,0.00,CLR,,0.02,0.0,WeatherDisplay:10.37,2013-01-14 20:11:00,
2013-01-14 20:16:00,30.3,27.7,29.76,WNW,286,0.0,0.0,90,0.00,CLR,,0.02,0.0,WeatherDisplay:10.37,2013-01-14 20:16:00,
2013-01-14 20:21:00,30.4,27.8,29.76,WNW,286,0.0,0.0,90,0.00,CLR,,0.02,0.0,WeatherDisplay:10.37,2013-01-14 20:21:00,
2013-01-14 20:26:00,30.5,27.9,29.77,WNW,286,3.5,3.5,90,0.00,CLR,,0.02,0.0,WeatherDisplay:10.37,2013-01-14 20:26:00,
2013-01-14 20:31:00,30.7,28.1,29.76,WNW,286,0.0,0.0,90,0.00,CLR,,0.02,0.0,WeatherDisplay:10.37,2013-01-14 20:31:00,
2013-01-14 20:36:00,30.7,28.1,29.76,WNW,286,0.0,0.0,90,0.00,CLR,,0.02,0.0,WeatherDisplay:10.37,2013-01-14 20:36:00,
2013-01-14 20:41:00,30.8,28.2,29.76,WNW,286,0.0,0.0,90,0.00,CLR,,0.02,0.0,WeatherDisplay:10.37,2013-01-14 20:41:00,
2013-01-14 20:46:00,30.9,28.3,29.77,WNW,286,0.0,0.0,90,0.00,CLR,,0.02,0.0,WeatherDisplay:10.37,2013-01-14 20:46:00,
2013-01-14 20:51:00,30.9,28.0,29.77,WNW,286,0.0,0.0,89,0.00,CLR,,0.02,0.0,WeatherDisplay:10.37,2013-01-14 20:51:00,
2013-01-14 20:56:00,30.8,27.9,29.77,WNW,286,0.0,0.0,89,0.00,CLR,,0.02,0.0,WeatherDisplay:10.37,2013-01-14 20:56:00,
2013-01-14 21:01:00,30.8,27.9,29.76,WNW,286,0.0,0.0,89,0.00,CLR,,0.02,0.0,WeatherDisplay:10.37,2013-01-14 21:01:00,
2013-01-14 21:06:00,30.8,27.9,29.77,WNW,286,0.0,0.0,89,0.00,CLR,,0.02,0.0,WeatherDisplay:10.37,2013-01-14 21:06:00,
2013-01-14 21:11:00,30.7,27.8,29.77,WNW,286,0.0,0.0,89,0.00,CLR,,0.02,0.0,WeatherDisplay:10.37,2013-01-14 21:11:00,
2013-01-14 21:16:00,30.6,27.7,29.77,WNW,286,0.0,0.0,89,0.00,CLR,,0.02,0.0,WeatherDisplay:10.37,2013-01-14 21:16:00,
2013-01-14 21:21:00,30.5,27.6,29.77,WNW,286,0.0,0.0,89,0.00,CLR,,0.02,0.0,WeatherDisplay:10.37,2013-01-14 21:21:00,
2013-01-14 21:26:00,30.4,27.5,29.77,WNW,286,0.0,0.0,89,0.00,CLR,,0.02,0.0,WeatherDisplay:10.37,2013-01-14 21:26:00,
2013-01-14 21:31:00,30.4,27.5,29.77,WNW,287,0.0,0.0,89,0.00,CLR,,0.02,0.0,WeatherDisplay:10.37,2013-01-14 21:31:00,
2013-01-14 21:36:00,30.4,27.5,29.77,WNW,286,0.0,0.0,89,0.00,CLR,,0.02,0.0,WeatherDisplay:10.37,2013-01-14 21:36:00,
2013-01-14 21:41:00,30.4,27.5,29.77,WNW,286,0.0,0.0,89,0.00,CLR,,0.02,0.0,WeatherDisplay:10.37,2013-01-14 21:41:00,
2013-01-14 21:46:00,30.4,27.5,29.78,WNW,286,0.0,0.0,89,0.00,CLR,,0.02,0.0,WeatherDisplay:10.37,2013-01-14 21:46:00,
2013-01-14 21:51:00,30.4,27.5,29.77,WNW,286,0.0,0.0,89,0.00,CLR,,0.02,0.0,WeatherDisplay:10.37,2013-01-14 21:51:00,
2013-01-14 21:56:00,30.4,27.5,29.78,WNW,286,0.0,0.0,89,0.00,CLR,,0.02,0.0,WeatherDisplay:10.37,2013-01-14 21:56:00,
2013-01-14 22:01:00,30.5,27.9,29.77,WNW,286,0.0,0.0,90,0.00,CLR,,0.02,0.0,WeatherDisplay:10.37,2013-01-14 22:01:00,
2013-01-14 22:06:00,30.5,27.9,29.78,WNW,287,0.0,0.0,90,0.00,CLR,,0.02,0.0,WeatherDisplay:10.37,2013-01-14 22:06:00,
2013-01-14 22:11:00,30.6,28.0,29.78,WNW,286,1.1,0.0,90,0.00,CLR,,0.02,0.0,WeatherDisplay:10.37,2013-01-14 22:11:00,
2013-01-14 22:16:00,30.7,28.1,29.78,WNW,286,1.0,1.0,90,0.00,CLR,,0.02,0.0,WeatherDisplay:10.37,2013-01-14 22:16:00,
2013-01-14 22:21:00,30.8,28.2,29.78,WNW,286,2.3,0.0,90,0.00,CLR,,0.02,0.0,WeatherDisplay:10.37,2013-01-14 22:21:00,
2013-01-14 22:26:00,30.9,28.3,29.77,WNW,286,0.0,0.0,90,0.00,CLR,,0.02,0.0,WeatherDisplay:10.37,2013-01-14 22:26:00,
2013-01-14 22:31:00,31.0,28.4,29.78,WNW,286,0.0,0.0,90,0.00,CLR,,0.02,0.0,WeatherDisplay:10.37,2013-01-14 22:31:00,
2013-01-14 22:36:00,31.1,28.5,29.78,WNW,286,0.0,0.0,90,0.00,CLR,,0.02,0.0,WeatherDisplay:10.37,2013-01-14 22:36:00,
2013-01-14 22:41:00,31.1,28.5,29.78,WNW,286,0.0,0.0,90,0.00,CLR,,0.02,0.0,WeatherDisplay:10.37,2013-01-14 22:41:00,
2013-01-14 22:46:00,31.2,28.6,29.78,WNW,286,0.0,0.0,90,0.00,CLR,,0.02,0.0,WeatherDisplay:10.37,2013-01-14 22:46:00,
2013-01-14 22:51:00,31.3,28.7,29.78,WNW,286,0.0,0.0,90,0.00,CLR,,0.02,0.0,WeatherDisplay:10.37,2013-01-14 22:51:00,
2013-01-14 22:56:00,31.4,28.8,29.78,WNW,286,0.0,0.0,90,0.00,CLR,,0.02,0.0,WeatherDisplay:10.37,2013-01-14 22:56:00,
2013-01-14 23:01:00,31.5,28.9,29.78,WNW,286,0.0,0.0,90,0.00,CLR,,0.02,0.0,WeatherDisplay:10.37,2013-01-14 23:01:00,
2013-01-14 23:06:00,31.6,29.0,29.79,WNW,287,0.0,0.0,90,0.00,CLR,,0.02,0.0,WeatherDisplay:10.37,2013-01-14 23:06:00,
2013-01-14 23:11:00,31.7,29.1,29.79,WNW,286,0.0,0.0,90,0.00,CLR,,0.02,0.0,WeatherDisplay:10.37,2013-01-14 23:11:00,
2013-01-14 23:16:00,31.7,29.1,29.79,WNW,287,0.0,0.0,90,0.00,CLR,,0.02,0.0,WeatherDisplay:10.37,2013-01-14 23:16:00,
2013-01-14 23:21:00,31.8,29.2,29.80,WNW,287,0.0,0.0,90,0.00,CLR,,0.02,0.0,WeatherDisplay:10.37,2013-01-14 23:21:00,
2013-01-14 23:26:00,31.9,29.3,29.80,WNW,286,0.0,0.0,90,0.00,CLR,,0.02,0.0,WeatherDisplay:10.37,2013-01-14 23:26:00,
2013-01-14 23:31:00,32.0,29.4,29.80,WNW,286,0.0,0.0,90,0.00,CLR,,0.02,0.0,WeatherDisplay:10.37,2013-01-14 23:31:00,
2013-01-14 23:36:00,32.0,29.4,29.80,WNW,286,0.0,0.0,90,0.00,CLR,,0.02,0.0,WeatherDisplay:10.37,2013-01-14 23:36:00,
2013-01-14 23:41:00,32.1,29.5,29.80,WNW,286,0.0,0.0,90,0.00,CLR,,0.02,0.0,WeatherDisplay:10.37,2013-01-14 23:41:00,
2013-01-14 23:46:00,32.2,29.6,29.80,WNW,286,0.0,0.0,90,0.00,CLR,,0.02,0.0,WeatherDisplay:10.37,2013-01-14 23:46:00,
2013-01-14 23:52:00,32.3,29.7,29.80,WNW,286,0.0,0.0,90,0.00,CLR,,0.02,0.0,WeatherDisplay:10.37,2013-01-14 23:52:00,
2013-01-14 23:57:00,32.3,29.7,29.80,WNW,286,0.0,0.0,90,0.00,CLR,,0.02,0.0,WeatherDisplay:10.37,2013-01-14 23:57:00,